Regional Weather Roundup
Issued by NWS State College, PA

Home | Current Version | Previous Version | Graphics & Text | Print | Product List | Glossary Off
Versions: 1 2 3 4 5 6 7 8 9 10 11 12 13 14 15 16 17 18 19 20 21 22 23 24 25 26 27 28 29 30 31 32 33 34 35 36 37 38 39 40 41 42 43 44 45 46 47 48 49 50

000
ASUS41 KCTP 291703
RWRCTP

REGIONAL WEATHER ROUNDUP
NATIONAL WEATHER SERVICE STATE COLLEGE PA
1200 PM EST THU JAN 29 2015

Note: "fair" indicates few or no clouds below 12,000 feet with no
significant weather and/or obstructions to visibility.

* = STATION THAT DOES NOT REPORT PRECIPITATION /E.G. RAIN...SNOW...ETC/
    THUNDER OR FOG.

PAZ002>004-007>009-013>016-020>023-029>032-291800-
WESTERN PENNSYLVANIA

CITY           SKY/WX    TMP DP  RH WIND       PRES   REMARKS
ERIE           CLOUDY    35  15  44 S22G33    29.80R
MEADVILLE      LGT SNOW  31  20  63 VRB6      29.83F
FRANKLIN*      CLOUDY    28  16  59 S17       29.87F
NEW CASTLE     MIX PCPN  30  23  75 S6        29.88F
BEAVER COUNTY  CLOUDY    30  25  80 S7        29.88F
BUTLER*        CLOUDY    34  21  60 S8        29.91F
PITTSBURGH INT FRZ RAIN  32  25  75 S5        29.89F
PITTSBURGH     LGT RAIN  33  19  56 S9        29.90F
INDIANA*       PTSUNNY   36  12  38 S14G21    29.97F
LATROBE        CLOUDY    41  14  33 S9        29.94F
WASHINGTON CO* CLOUDY    34  27  75 S6        29.92F
$$

PAZ004>006-010>012-017>019-024>028-033>037-041-042-045-046-049>053-291800-
CENTRAL PENNSYLVANIA

CITY           SKY/WX    TMP DP  RH WIND       PRES   REMARKS
BRADFORD       CLOUDY    28   2  32 S9G22     29.87F
DUBOIS         CLOUDY    28   6  39 SE15G21   29.90F
CLEARFIELD     CLOUDY    25   8  48 CALM      29.99F
JOHNSTOWN      CLOUDY    27   8  44 S18G26    29.94F WCI  14
ALTOONA        CLOUDY    27   5  39 S9        30.05F
STATE COLLEGE  CLOUDY    25   7  46 SW9       30.06F
WILLIAMSPORT   CLOUDY    18   7  62 E7        30.15F WCI   9
SELINSGROVE    CLOUDY    20   8  60 CALM      30.19F
FT INDIANTOWN  CLOUDY    24   5  44 E6        30.21F
CAPITAL CITY   CLOUDY     3   3 100 E9        30.21F WCI -12
HARRISBURG     CLOUDY    25  10  53 SE5       30.21F
YORK           CLOUDY    28  12  51 SE3       30.19F
$$

PAZ038>040-043-044-047-048-054-055-060>062-067>071-291800-
EASTERN PENNSYLVANIA

CITY           SKY/WX    TMP DP  RH WIND       PRES   REMARKS
SCRANTON       CLOUDY    21   8  57 CALM      30.14F
MOUNT POCONO   PTSUNNY   24   0  35 SE8       30.11F
ALLENTOWN      PTSUNNY   24   6  46 NE6       30.24F
QUAKERTOWN*    PTSUNNY   28   3  34 SE7       30.24F
READING        CLOUDY    26   9  48 CALM      30.22F
LANCASTER      CLOUDY    24  12  60 E3        30.21F
COATESVILLE    CLOUDY    32   9  37 SE6       30.21F
POTTSTOWN      CLOUDY    27   5  39 E6        30.24F
BLUE BELL      PTSUNNY   32   5  32 SE5       30.25F
DOYLESTOWN     PTSUNNY   25   2  37 SE5       30.24F
WILLOW GROVE   NOT AVBL
NORTH PHILA    PTSUNNY   30   5  34 E5        30.29F
PHILADELPHIA   CLOUDY    32   5  32 SE5       30.28F
$$


USA.gov is the U.S. government's official web portal to all federal, state and local government web resources and services.